CW4778 Auckland NZ current weather conditions

sailwx.info

Wind from 303

Air temperature 16.7° C
Dewpoint 16.4° C

Last reported at 2017-Mar-24 17:48 UTC.
Time now 2017-Mar-24 18:07 UTC

Location: S 36°52' E 174°44'.
View on Google Maps.

See reports from other nearby stations

  
Tides and Currents Weather Stations Pressure Air Temp Water Temp Dewpoint Dewpoint Depression Visibility Wind Speed Wind Dir Waves Ship Positions
date/time (UTC)wind fromknots sea level pressurealtimeterstation pressurevisibilityair tempwater tempwave heightnotes
2017-Mar-24 17:48 303 16.7
2017-Mar-24 17:38 305 16.7
2017-Mar-24 17:28 304 16.7
2017-Mar-24 17:18 301 16.7
2017-Mar-24 17:08 304 17.2
2017-Mar-24 16:58 304 17.2
2017-Mar-24 16:48 300 17.2
2017-Mar-24 16:38 299 17.2
2017-Mar-24 16:28 322 17.2
2017-Mar-24 16:18 319 0 gusting 4 17.2
2017-Mar-24 16:08 322 0 gusting 5 17.2
2017-Mar-24 15:58 332 17.2
2017-Mar-24 15:48 324 17.2
2017-Mar-24 15:38 325 17.2
2017-Mar-24 15:28 355 17.2
2017-Mar-24 15:18 321 17.2
2017-Mar-24 14:58 316 17.2
2017-Mar-24 14:48 314 17.2
2017-Mar-24 14:38 340 17.2
2017-Mar-24 14:28 318 17.2
2017-Mar-24 14:08 310 17.2
2017-Mar-24 13:58 301 17.8
2017-Mar-24 13:48 298 17.8
2017-Mar-24 13:38 327 17.8
2017-Mar-24 13:28 349 17.8
2017-Mar-24 13:18 349 17.8
2017-Mar-24 13:08 313 17.8
2017-Mar-24 12:48 318 17.8
2017-Mar-24 12:38 317 18.3
2017-Mar-24 12:28 331 18.3
2017-Mar-24 12:18 296 18.3
2017-Mar-24 12:08 320 18.3
2017-Mar-24 11:58 303 0 gusting 6 18.3
2017-Mar-24 11:28 345 18.3
2017-Mar-24 11:18 345 18.3
2017-Mar-24 10:58 325 18.3
2017-Mar-24 10:38 333 18.3
2017-Mar-24 10:28 297 18.3
2017-Mar-24 10:18 271 18.3
2017-Mar-24 09:58 315 18.3
2017-Mar-24 09:48 315 18.3
2017-Mar-24 09:38 324 18.9
2017-Mar-24 09:28 331 18.9
2017-Mar-24 09:18 289 18.9
2017-Mar-24 08:58 302 18.9
2017-Mar-24 08:48 297 18.9
2017-Mar-24 08:38 287 18.9
2017-Mar-24 08:18 292 18.9
2017-Mar-24 08:08 18.9
2017-Mar-24 07:48 272 18.9
2017-Mar-24 07:28 302 18.9
2017-Mar-24 07:18 299 19.4
2017-Mar-24 07:08 299 19.4
2017-Mar-24 06:58 296 19.4
2017-Mar-24 06:48 299 19.4
2017-Mar-24 06:18 333 19.4
2017-Mar-24 05:58 304 0 gusting 2 20.0
2017-Mar-24 05:28 310 20.6
2017-Mar-24 05:18 311 0 gusting 4 20.6
2017-Mar-24 05:08 274 1 gusting 6 20.6
2017-Mar-24 04:58 246 20.6
2017-Mar-24 04:48 281 1 gusting 6 21.1
2017-Mar-24 04:38 297 2 gusting 10 21.1
2017-Mar-24 04:18 277 2 gusting 8 21.1
2017-Mar-24 03:58 265 1 gusting 6 22.2
2017-Mar-24 03:48 295 1 gusting 6 21.7
2017-Mar-24 03:38 296 0 gusting 6 21.7
2017-Mar-24 03:18 289 4 gusting 10 22.2
2017-Mar-24 02:58 281 4 gusting 7 22.2
2017-Mar-24 02:18 344 1 gusting 6 22.2
2017-Mar-24 01:58 346 0 gusting 5 21.7
2017-Mar-24 01:38 22.2
2017-Mar-24 01:28 331 22.2
2017-Mar-24 01:18 334 0 gusting 8 22.2
2017-Mar-24 00:38 329 2 gusting 6 22.2
2017-Mar-24 00:18 033 0 gusting 6 22.8
2017-Mar-24 00:08 005 0 gusting 6 22.8
2017-Mar-23 23:48 318 22.2
2017-Mar-23 23:28 356 1 gusting 7 22.2
2017-Mar-23 23:18 312 2 gusting 6 23.3
2017-Mar-23 23:08 292 1 gusting 5 23.9
2017-Mar-23 22:48 341 21.7
2017-Mar-23 22:38 299 0 gusting 4 21.7
2017-Mar-23 22:28 336 0 gusting 2 22.2
2017-Mar-23 22:18 301 22.2
2017-Mar-23 22:08 009 21.7
2017-Mar-23 21:58 358 20.6
2017-Mar-23 21:48 21.1
2017-Mar-23 21:38 042 0 gusting 1 21.7
2017-Mar-23 21:28 358 19.4
2017-Mar-23 21:18 358 19.4
2017-Mar-23 21:08 011 18.9
2017-Mar-23 20:58 309 18.9
2017-Mar-23 20:38 317 18.3
2017-Mar-23 20:28 306 17.8
2017-Mar-23 19:58 265 17.2
2017-Mar-23 19:48 271 16.7
2017-Mar-23 19:08 273 15.0
2017-Mar-23 18:58 273 15.0
2017-Mar-23 18:48 272 14.4
2017-Mar-23 18:28 273 15.0
2017-Mar-23 18:18 270 15.0
2017-Mar-23 18:08 276 15.0
2017-Mar-23 17:58 320 15.0
2017-Mar-23 17:48 275 15.0
2017-Mar-23 17:38 271 15.0
2017-Mar-23 17:28 271 15.0
2017-Mar-23 17:18 273 15.0
2017-Mar-23 17:08 271 15.0
2017-Mar-23 16:58 277 15.0
2017-Mar-23 16:48 272 15.0
2017-Mar-23 16:28 271 15.0
2017-Mar-23 16:18 273 15.0
2017-Mar-23 15:58 273 15.0
2017-Mar-23 15:38 274 15.0
2017-Mar-23 15:28 271 15.0
2017-Mar-23 15:18 269 14.4
2017-Mar-23 14:58 249 14.4
2017-Mar-23 14:48 246 14.4
2017-Mar-23 14:38 247 14.4
2017-Mar-23 14:28 248 14.4
2017-Mar-23 14:18 248 15.0
2017-Mar-23 14:08 250 15.0
2017-Mar-23 13:48 248 15.0
2017-Mar-23 13:38 247 15.0
2017-Mar-23 13:28 247 14.4
2017-Mar-23 13:18 248 15.0
2017-Mar-23 13:08 252 14.4
2017-Mar-23 12:58 248 14.4
2017-Mar-23 12:48 246 14.4
2017-Mar-23 12:38 256 14.4
2017-Mar-23 12:28 248 14.4
2017-Mar-23 12:18 247 14.4
2017-Mar-23 11:48 247 14.4
2017-Mar-23 11:08 249 15.0
2017-Mar-23 10:58 246 15.0
2017-Mar-23 10:38 248 15.0
2017-Mar-23 10:28 249 15.0
2017-Mar-23 10:18 248 15.0
2017-Mar-23 10:08 244 15.6
2017-Mar-23 09:58 249 15.6
2017-Mar-23 09:48 244 15.6
2017-Mar-23 09:38 248 16.1
2017-Mar-23 09:28 328 16.1
2017-Mar-23 09:08 254 16.7
2017-Mar-23 08:58 203 16.7
2017-Mar-23 08:48 251 16.7
2017-Mar-23 08:38 207 16.7
2017-Mar-23 08:18 267 16.7
2017-Mar-23 07:58 253 17.2
2017-Mar-23 07:48 241 17.2
2017-Mar-23 07:28 242 17.2
2017-Mar-23 07:18 220 1 gusting 5 17.8
2017-Mar-23 07:08 177 0 gusting 5 17.8
2017-Mar-23 06:58 171 0 gusting 6 17.8
2017-Mar-23 06:38 204 2 gusting 7 18.3
2017-Mar-23 06:18 186 2 gusting 7 18.3
2017-Mar-23 06:08 184 1 gusting 8 18.9
2017-Mar-23 05:58 212 3 gusting 6 18.9
2017-Mar-23 05:48 218 3 gusting 11 19.4
2017-Mar-23 05:18 195 6 gusting 12 20.0
2017-Mar-23 05:08 191 8 gusting 14 20.6
2017-Mar-23 04:58 174 2 gusting 12 20.6
2017-Mar-23 04:48 191 9 gusting 19 20.6
2017-Mar-23 04:38 189 10 gusting 13 21.1
2017-Mar-23 04:18 181 5 gusting 10 21.7
2017-Mar-23 04:08 209 5 gusting 8 21.7
2017-Mar-23 03:58 219 1 gusting 12 21.7
2017-Mar-23 03:38 180 1 gusting 8 22.2
2017-Mar-23 03:28 191 7 gusting 12 22.2
2017-Mar-23 03:18 225 3 gusting 13 22.2
2017-Mar-23 02:28 201 4 gusting 10 22.8
2017-Mar-23 02:18 202 5 gusting 10 22.2
2017-Mar-23 02:08 171 2 gusting 10 22.2
2017-Mar-23 01:58 286 1 gusting 10 22.2
2017-Mar-23 01:48 180 6 gusting 13 22.2
2017-Mar-23 01:38 201 3 gusting 11 22.8
2017-Mar-23 01:18 159 6 gusting 11 22.2
2017-Mar-23 01:08 174 4 gusting 11 21.7
2017-Mar-23 00:48 200 4 gusting 11 23.3
2017-Mar-23 00:38 212 7 gusting 12 22.8
2017-Mar-23 00:18 197 6 gusting 11 21.7
2017-Mar-23 00:08 215 5 gusting 13 22.2
2017-Mar-22 23:48 196 3 gusting 13 21.7
2017-Mar-22 23:28 212 5 gusting 11 22.2
2017-Mar-22 23:18 216 2 gusting 13 22.8
2017-Mar-22 22:58 223 4 gusting 10 22.2
2017-Mar-22 21:58 225 0 gusting 6 20.6
2017-Mar-22 21:48 249 20.6
2017-Mar-22 21:38 202 1 gusting 10 20.0
2017-Mar-22 21:28 198 3 gusting 7 20.0
2017-Mar-22 21:08 250 3 gusting 10 20.6
2017-Mar-22 20:58 263 4 gusting 10 20.6
2017-Mar-22 20:18 231 19.4
2017-Mar-22 19:58 258 19.4
2017-Mar-22 19:48 249 19.4
2017-Mar-22 19:28 261 1 gusting 6 18.9
2017-Mar-22 19:18 272 0 gusting 4 18.9
2017-Mar-22 19:08 277 18.9
2017-Mar-22 18:48 277 18.3
2017-Mar-22 18:38 278 18.3
2017-Mar-22 18:28 281 18.3